sat.trackr.live / text

‹ back to catalog

HULIANWANG DIGUI-161

NORAD 68135 · 2026-047G

PAYLOAD ACTIVE UNKNOWN

§ Identity

Operator
Country
PRC
Launch date
2026-03-12
Launch site
WSC
Launch vehicle
Mass (kg)
RCS (m²)

External: N2YO · Heavens-Above · Gunter

§ Orbital elements

Epoch: 2026-09-19T20:07:02.131968Z

Period
108.33 min
Inclination
50.0087°
Eccentricity
0.0001157
Mean motion
13.29328910 rev/d
Perigee alt
1,148.4 km
Apogee alt
1,150.2 km
Semi-major
7,527.4 km
B*
4.9980e-5
RAAN
76.6426°
Arg perigee
82.9798°
Mean anomaly
277.1206°
Rev number
2,566

§ Raw data

HULIANWANG DIGUI-1611 68135U 26047G   26262.83821912 -.00000101  00000+0  49980-4 0  99902 68135  50.0087  76.6426 0001157  82.9798 277.1206 13.29328910 25665

JSON: /api/v1/satellites/68135 · /tle

For live sub-satellite position, see the globe view (requires WebGL).

§ Visibility from observer

Set your observer location to see the next 7 days of passes ≥ 10°. The values pass through the URL so the page stays shareable.

No JS? Fill the form by hand. The geolocation button needs JavaScript.